GW3570 Weather Reports


Display with metric or nautical units.
time (UTC)temp
F
wind
direction
speed
MPH
gust
MPH
rain 1hr
in
rain 24hr
in
rain mn
in
humidity
%
barometer
mb
20260510144325 64 206 0.0 0.0 0.00 0.00 0.00 46 1021.3
20260510143824 64 221 1.0 1.0 0.00 0.00 0.00 48 1021.4
20260510143321 63 51 2.0 2.0 0.00 0.00 0.00 47 1021.3
20260510142818 64 278 1.0 2.0 0.00 0.00 0.00 47 1021.3
20260510142315 63 180 2.0 2.0 0.00 0.00 0.00 47 1021.0
20260510141806 63 282 1.0 2.0 0.00 0.00 0.00 49 1021.2
20260510141304 63 319 1.0 2.0 0.00 0.00 0.00 49 1021.1
20260510140801 63 114 3.0 3.0 0.00 0.00 0.00 47 1020.8
20260510140256 63 229 0.0 1.0 0.00 0.00 0.00 48 1020.8
20260510135750 63 208 0.0 1.0 0.00 0.00 0.00 50 1020.6
20260510135245 62 129 2.0 3.0 0.00 0.00 0.00 47 1020.3
20260510134743 62 277 1.0 1.0 0.00 0.00 0.00 49 1020.5
20260510134240 62 287 1.0 2.0 0.00 0.00 0.00 52 1020.1
20260510133736 61 188 1.0 1.0 0.00 0.00 0.00 53 1020.1
20260510133231 61 252 2.0 3.0 0.00 0.00 0.00 53 1020.0
20260510132728 60 282 1.0 1.0 0.00 0.00 0.00 53 1020.1
20260510132226 60 189 1.0 2.0 0.00 0.00 0.00 52 1020.0
20260510131722 60 286 1.0 2.0 0.00 0.00 0.00 55 1019.7
20260510131221 59 280 0.0 1.0 0.00 0.00 0.00 57 1019.5
20260510130716 59 339 4.0 5.0 0.00 0.00 0.00 57 1019.5
20260510130214 59 332 3.0 3.0 0.00 0.00 0.00 59 1019.2
20260510125710 59 321 3.0 3.0 0.00 0.00 0.00 59 1019.2
20260510125206 59 223 0.0 1.0 0.00 0.00 0.00 57 1019.3
20260510124704 59 225 0.0 0.0 0.00 0.00 0.00 56 1019.3
20260510124201 59 344 1.0 2.0 0.00 0.00 0.00 57 1019.3
20260510123656 58 264 2.0 2.0 0.00 0.00 0.00 56 1019.1
20260510123152 58 207 0.0 0.0 0.00 0.00 0.00 59 1018.9
20260510122649 58 183 0.0 1.0 0.00 0.00 0.00 58 1018.9
20260510122145 58 213 0.0 0.0 0.00 0.00 0.00 60 1019.0
20260510121642 58 247 2.0 2.0 0.00 0.00 0.00 59 1019.1
20260510121139 58 255 0.0 0.0 0.00 0.00 0.00 61 1018.9
20260510120636 57 337 1.0 2.0 0.00 0.00 0.00 63 1019.1
20260510120132 57 314 1.0 2.0 0.00 0.00 0.00 64 1019.0
20260510115628 57 279 1.0 1.0 0.00 0.00 0.00 64 1018.7
20260510115127 57 213 0.0 0.0 0.00 0.00 0.00 64 1018.3
20260510114622 57 211 0.0 1.0 0.00 0.00 0.00 65 1018.4
20260510114118 57 234 0.0 1.0 0.00 0.00 0.00 67 1018.3
20260510113614 57 232 1.0 1.0 0.00 0.00 0.00 62 1018.3
20260510113111 57 218 0.0 0.0 0.00 0.00 0.00 65 1018.2
20260510112608 57 254 0.0 0.0 0.00 0.00 0.00 66 1018.4
20260510112104 57 256 2.0 2.0 0.00 0.00 0.00 67 1018.2
20260510111601 58 210 0.0 0.0 0.00 0.00 0.00 68 1018.3
20260510111056 58 216 0.0 0.0 0.00 0.00 0.00 70 1018.1
20260510110553 58 210 1.0 1.0 0.00 0.00 0.00 66 1018.0
20260510110049 59 253 1.0 1.0 0.00 0.00 0.00 67 1017.8
20260510105545 59 265 1.0 1.0 0.00 0.00 0.00 68 1017.6
20260510105039 59 218 1.0 1.0 0.00 0.00 0.00 68 1017.6
20260510104536 59 211 1.0 1.0 0.00 0.00 0.00 69 1017.3
20260510104032 59 225 1.0 1.0 0.00 0.00 0.00 70 1017.5
20260510103525 60 259 3.0 3.0 0.00 0.00 0.00 70 1017.3
20260510103021 60 187 1.0 2.0 0.00 0.00 0.00 71 1017.3
20260510102516 60 226 0.0 0.0 0.00 0.00 0.00 75 1017.3
20260510102013 60 320 2.0 2.0 0.00 0.00 0.00 79 1017.4
20260510101510 60 254 0.0 0.0 0.00 0.00 0.00 81 1017.2
20260510101009 59 239 1.0 1.0 0.00 0.00 0.00 80 1017.3
20260510100505 59 277 1.0 1.0 0.00 0.00 0.00 83 1017.1
20260510100002 59 181 0.0 0.0 0.00 0.00 0.00 81 1017.1
20260510095457 59 260 2.0 3.0 0.00 0.00 0.00 82 1016.9
20260510094956 59 215 1.0 1.0 0.00 0.00 0.00 84 1016.6
20260510094451 59 359 2.0 2.0 0.00 0.00 0.00 87 1016.7
20260510093947 59 192 0.0 0.0 0.00 0.00 0.00 85 1016.2
20260510093442 58 346 1.0 2.0 0.00 0.00 0.00 87 1016.4
20260510092939 59 352 2.0 2.0 0.00 0.00 0.00 88 1016.3
20260510092436 59 153 0.0 1.0 0.00 0.00 0.00 89 1016.5
20260510091931 59 257 0.0 1.0 0.00 0.00 0.00 89 1016.2
20260510091428 59 54 0.0 0.0 0.00 0.00 0.00 88 1016.3
20260510090924 59 50 1.0 1.0 0.00 0.00 0.00 88 1016.3
20260510090421 59 6 2.0 2.0 0.00 0.00 0.00 86 1015.9
20260510085917 59 178 0.0 0.0 0.00 0.00 0.00 84 1015.5
20260510085412 59 124 0.0 0.0 0.00 0.00 0.00 87 1015.6
20260510084907 60 43 1.0 1.0 0.00 0.00 0.00 86 1015.7
20260510084405 59 154 0.0 1.0 0.00 0.00 0.00 85 1015.7
20260510083902 60 150 0.0 1.0 0.00 0.00 0.00 87 1015.7
20260510083358 60 277 1.0 1.0 0.00 0.00 0.00 86 1015.2
20260510082854 60 214 0.0 0.0 0.00 0.00 0.00 85 1015.2
20260510082351 60 283 1.0 1.0 0.00 0.00 0.00 83 1015.1
20260510081850 61 259 1.0 1.0 0.00 0.00 0.00 83 1015.1
20260510081346 61 204 0.0 0.0 0.00 0.00 0.00 79 1015.2
20260510080843 62 224 0.0 0.0 0.00 0.00 0.00 80 1015.1
20260510080337 62 219 0.0 0.0 0.00 0.00 0.00 79 1015.2
20260510075834 62 213 0.0 0.0 0.00 0.00 0.00 77 1015.1
20260510075332 62 244 0.0 0.0 0.00 0.00 0.00 78 1015.1
20260510074828 62 235 1.0 1.0 0.00 0.00 0.00 79 1014.9
20260510074326 62 210 0.0 0.0 0.00 0.00 0.00 81 1014.8
20260510073822 62 214 0.0 0.0 0.00 0.00 0.00 81 1015.0
20260510073317 62 265 0.0 1.0 0.00 0.00 0.00 79 1014.8
20260510072814 62 240 1.0 1.0 0.00 0.00 0.00 78 1014.5
20260510072311 62 211 0.0 0.0 0.00 0.00 0.00 75 1014.5
20260510071807 63 214 0.0 0.0 0.00 0.00 0.00 75 1014.5
20260510071303 63 235 0.0 1.0 0.00 0.00 0.00 75 1014.4
20260510070803 63 198 0.0 0.0 0.00 0.00 0.00 72 1014.4
20260510070258 64 192 0.0 0.0 0.00 0.00 0.00 72 1014.4
20260510065753 63 194 0.0 0.0 0.00 0.00 0.00 71 1014.4
20260510065250 63 223 0.0 0.0 0.00 0.00 0.00 73 1014.4
20260510064746 63 200 0.0 0.0 0.00 0.00 0.00 74 1014.7
20260510064244 63 220 0.0 0.0 0.00 0.00 0.00 75 1014.5
20260510063740 63 221 1.0 1.0 0.00 0.00 0.00 76 1014.7
20260510063237 62 80 2.0 2.0 0.00 0.00 0.00 78 1014.6
20260510062733 62 231 0.0 1.0 0.00 0.00 0.00 81 1014.7
20260510062229 62 224 0.0 0.0 0.00 0.00 0.00 84 1015.1
20260510061725 62 229 0.0 0.0 0.00 0.00 0.00 81 1015.0
20260510061222 62 263 1.0 2.0 0.00 0.00 0.00 83 1014.5
20260510060718 62 254 0.0 1.0 0.00 0.00 0.00 80 1014.5
20260510060215 62 223 1.0 1.0 0.00 0.00 0.00 81 1014.5
20260510055712 62 228 0.0 1.0 0.00 0.00 0.00 83 1014.5
20260510055210 62 258 1.0 1.0 0.00 0.00 0.00 84 1014.3
20260510054705 62 1 2.0 2.0 0.00 0.00 0.00 86 1014.6
20260510054201 62 229 0.0 0.0 0.00 0.00 0.00 85 1014.8
20260510053700 61 228 0.0 0.0 0.00 0.00 0.00 86 1014.8
20260510053157 61 216 0.0 0.0 0.00 0.00 0.00 87 1014.6
20260510052652 60 237 0.0 0.0 0.00 0.00 0.00 87 1014.5
20260510052149 61 245 0.0 0.0 0.00 0.00 0.00 87 1014.2
20260510051645 61 214 0.0 0.0 0.00 0.00 0.00 87 1014.2
20260510051141 61 229 0.0 0.0 0.00 0.00 0.00 86 1014.1
20260510050639 61 212 0.0 0.0 0.00 0.00 0.00 86 1014.2
20260510050136 61 227 0.0 0.0 0.00 0.00 0.00 86 1014.0
20260510045633 61 169 0.0 0.0 0.00 0.02 0.02 85 1014.0
20260510045129 61 272 1.0 1.0 0.00 0.02 0.02 85 1013.9
20260510044625 61 179 0.0 0.0 0.00 0.02 0.02 84 1013.5
20260510044123 61 185 0.0 0.0 0.00 0.02 0.02 84 1013.6
20260510043619 61 334 1.0 1.0 0.00 0.02 0.02 83 1013.6
20260510043115 61 220 0.0 0.0 0.00 0.02 0.02 83 1013.5
20260510042613 61 298 0.0 0.0 0.00 0.02 0.02 81 1013.5
20260510042108 61 278 0.0 0.0 0.00 0.02 0.02 80 1013.3
20260510041600 62 178 0.0 0.0 0.00 0.02 0.02 80 1013.1
20260510041057 62 149 0.0 0.0 0.00 0.02 0.02 80 1013.1
20260510040554 62 138 1.0 1.0 0.00 0.02 0.02 80 1012.9
20260510040050 62 105 1.0 1.0 0.00 0.02 0.02 80 1012.8
20260510035547 62 141 0.0 1.0 0.00 0.02 0.02 79 1013.1
20260510035046 64 123 1.0 1.0 0.00 0.02 0.02 79 1012.8
20260510034545 64 168 0.0 0.0 0.00 0.02 0.02 78 1012.7
20260510034041 63 185 0.0 0.0 0.00 0.02 0.02 76 1012.7
20260510033537 64 302 1.0 1.0 0.00 0.02 0.02 75 1012.7
20260510033036 64 166 0.0 0.0 0.00 0.02 0.02 73 1012.7
20260510032532 64 241 0.0 1.0 0.00 0.02 0.02 75 1012.7
20260510032027 65 217 0.0 0.0 0.00 0.02 0.02 73 1012.6
20260510031522 66 135 1.0 1.0 0.00 0.02 0.02 73 1012.7
20260510031018 67 279 0.0 0.0 0.00 0.02 0.02 71 1012.6
20260510030514 67 150 0.0 0.0 0.00 0.02 0.02 68 1012.3
20260510030011 68 120 1.0 1.0 0.00 0.02 0.02 70 1012.3
20260510025508 68 162 1.0 1.0 0.00 0.02 0.02 65 1012.0
20260510025006 69 264 1.0 1.0 0.00 0.02 0.02 69 1012.1
20260510024502 69 204 0.0 0.0 0.00 0.02 0.02 68 1012.1
20260510023958 70 246 0.0 1.0 0.00 0.02 0.02 65 1012.0
20260510023454 71 256 2.0 2.0 0.00 0.02 0.02 59 1011.7
20260510022952 71 222 2.0 3.0 0.00 0.02 0.02 61 1011.8
20260510022451 71 336 3.0 3.0 0.00 0.02 0.02 60 1011.7
20260510021950 71 338 3.0 3.0 0.00 0.02 0.02 65 1011.3
20260510021448 68 351 7.0 8.0 0.00 0.02 0.02 68 1011.1
20260510020944 66 6 0.0 0.0 0.00 0.02 0.02 81 1010.7
20260510020439 66 164 0.0 0.0 0.00 0.02 0.02 82 1010.0
20260510015935 66 146 0.0 0.0 0.00 0.02 0.02 80 1010.1
20260510015431 66 130 0.0 0.0 0.00 0.02 0.02 80 1009.9
20260510014926 67 176 0.0 0.0 0.00 0.02 0.02 80 1009.9
20260510014424 67 183 0.0 0.0 0.00 0.02 0.02 79 1009.4
20260510013920 67 151 0.0 0.0 0.00 0.02 0.02 79 1009.5
20260510013415 67 106 0.0 0.0 0.00 0.02 0.02 78 1009.5
20260510012911 68 166 0.0 0.0 0.00 0.02 0.02 77 1009.4
20260510012406 68 185 0.0 0.0 0.00 0.02 0.02 77 1009.1
20260510011901 68 118 0.0 0.0 0.00 0.02 0.02 77 1009.3
20260510011356 69 136 0.0 0.0 0.00 0.02 0.02 75 1009.3
20260510010853 70 186 0.0 0.0 0.00 0.02 0.02 75 1009.3
20260510010350 70 177 0.0 0.0 0.00 0.02 0.02 74 1009.2
20260510005846 71 156 0.0 0.0 0.00 0.02 0.02 73 1008.9
20260510005343 72 264 0.0 0.0 0.00 0.02 0.02 70 1009.1
20260510004840 73 193 0.0 0.0 0.00 0.02 0.02 68 1009.3
20260510004338 73 192 0.0 0.0 0.00 0.02 0.02 68 1009.0
20260510003836 74 213 0.0 0.0 0.00 0.02 0.02 67 1008.9
20260510003332 75 196 0.0 0.0 0.00 0.02 0.02 65 1009.1
20260510002831 74 178 0.0 0.0 0.00 0.02 0.02 66 1009.0
20260510002328 73 266 0.0 0.0 0.00 0.02 0.02 70 1009.1
20260510001825 74 260 0.0 0.0 0.00 0.02 0.02 69 1008.9
20260510001323 75 198 0.0 0.0 0.00 0.02 0.02 68 1009.0
20260510000819 75 199 0.0 0.0 0.00 0.02 0.02 68 1009.1
20260510000318 75 201 0.0 0.0 0.00 0.02 0.02 67 1008.9
20260509235813 75 75 0.0 0.0 0.00 0.02 0.02 65 1008.9
20260509235310 75 131 0.0 0.0 0.00 0.02 0.02 65 1009.1
20260509234806 75 224 0.0 0.0 0.00 0.02 0.02 66 1009.1
20260509234302 76 267 0.0 0.0 0.00 0.02 0.02 65 1009.2
20260509233801 76 241 0.0 0.0 0.00 0.02 0.02 64 1008.9
20260509233258 77 226 0.0 0.0 0.00 0.02 0.02 66 1008.9
20260509232754 78 191 0.0 0.0 0.00 0.02 0.02 57 1008.9
20260509232251 79 199 0.0 1.0 0.00 0.02 0.02 57 1008.9
20260509231747 80 200 0.0 0.0 0.00 0.02 0.02 53 1009.2
20260509231244 79 197 0.0 0.0 0.00 0.02 0.02 52 1009.0
20260509230742 79 203 0.0 0.0 0.00 0.02 0.02 51 1009.2
20260509230239 79 215 0.0 0.0 0.00 0.02 0.02 51 1009.1
20260509225734 79 214 0.0 0.0 0.00 0.02 0.02 51 1009.1
20260509225230 79 211 0.0 0.0 0.00 0.02 0.02 55 1009.1
20260509224726 79 213 0.0 0.0 0.00 0.02 0.02 50 1008.8
20260509224224 80 218 1.0 1.0 0.00 0.02 0.02 49 1008.9
20260509223720 80 244 2.0 3.0 0.00 0.02 0.02 49 1008.7
20260509223217 81 237 3.0 3.0 0.00 0.02 0.02 44 1008.8
20260509222714 81 222 1.0 1.0 0.00 0.02 0.02 45 1009.0
20260509222209 81 218 0.0 1.0 0.00 0.02 0.02 43 1008.9
20260509221705 82 239 5.0 5.0 0.00 0.02 0.02 40 1009.0
20260509221202 82 228 1.0 1.0 0.00 0.02 0.02 42 1008.8
20260509220657 81 304 4.0 5.0 0.00 0.02 0.02 40 1009.0
20260509220148 82 243 5.0 6.0 0.00 0.02 0.02 37 1009.0
20260509215644 83 255 2.0 2.0 0.00 0.02 0.02 40 1008.8
20260509215141 82 262 3.0 3.0 0.00 0.02 0.02 39 1008.9
20260509214638 82 299 6.0 7.0 0.00 0.02 0.02 35 1008.7
20260509214135 82 255 5.0 6.0 0.00 0.02 0.02 41 1008.9
20260509213631 82 267 4.0 6.0 0.00 0.02 0.02 42 1008.9
20260509213127 82 256 3.0 3.0 0.00 0.02 0.02 43 1009.1
20260509212625 82 257 4.0 5.0 0.00 0.02 0.02 42 1008.9
20260509212122 82 277 5.0 6.0 0.00 0.02 0.02 38 1008.9
20260509211617 82 246 4.0 5.0 0.00 0.02 0.02 43 1009.2
20260509211114 81 254 3.0 3.0 0.00 0.02 0.02 40 1009.2
20260509210611 82 237 3.0 3.0 0.00 0.02 0.02 42 1009.3
20260509210108 81 248 4.0 5.0 0.00 0.02 0.02 39 1009.3
20260509205602 82 252 6.0 7.0 0.00 0.02 0.02 42 1009.6
20260509205057 82 236 4.0 5.0 0.00 0.02 0.02 40 1009.5
20260509204554 81 228 2.0 2.0 0.00 0.02 0.02 46 1009.4
20260509204051 81 242 3.0 5.0 0.00 0.02 0.02 47 1009.5
20260509203546 81 306 5.0 7.0 0.00 0.02 0.02 41 1009.6
20260509203044 82 239 2.0 2.0 0.00 0.02 0.02 40 1009.6
20260509202539 82 234 3.0 3.0 0.00 0.02 0.02 45 1009.7
20260509202035 82 285 3.0 3.0 0.00 0.02 0.02 44 1009.8
20260509201530 82 263 2.0 2.0 0.00 0.02 0.02 43 1009.9
20260509201027 81 228 1.0 2.0 0.00 0.02 0.02 42 1009.9
20260509200521 81 252 4.0 5.0 0.00 0.02 0.02 44 1009.9
20260509200019 81 249 3.0 3.0 0.00 0.02 0.02 47 1010.0
20260509195514 81 1 4.0 5.0 0.00 0.02 0.02 40 1009.7
20260509195014 81 258 4.0 5.0 0.00 0.02 0.02 46 1010.0
20260509194509 81 246 2.0 2.0 0.00 0.02 0.02 43 1009.9
20260509194006 81 270 7.0 9.0 0.00 0.02 0.02 40 1010.0
20260509193501 80 301 9.0 13.0 0.00 0.02 0.02 43 1010.1
20260509192957 80 252 6.0 7.0 0.00 0.02 0.02 46 1010.2
20260509192454 80 304 4.0 5.0 0.00 0.02 0.02 43 1010.2
20260509191949 80 320 4.0 6.0 0.00 0.02 0.02 45 1010.2
20260509191444 79 255 1.0 1.0 0.00 0.02 0.02 47 1010.2
20260509190940 80 256 4.0 5.0 0.00 0.02 0.02 48 1009.9
20260509190438 80 255 4.0 6.0 0.00 0.02 0.02 46 1010.0
20260509185935 79 267 4.0 6.0 0.00 0.02 0.02 45 1010.2
20260509185432 79 255 5.0 5.0 0.00 0.02 0.02 51 1010.2
20260509184929 78 246 4.0 6.0 0.00 0.02 0.02 45 1010.1
20260509184427 79 259 6.0 8.0 0.00 0.02 0.02 51 1010.2
20260509183923 78 223 1.0 2.0 0.00 0.02 0.02 46 1010.3
20260509183417 78 252 3.0 3.0 0.00 0.02 0.02 51 1010.2
20260509182914 78 287 3.0 3.0 0.00 0.02 0.02 51 1010.5
20260509182411 78 251 5.0 6.0 0.00 0.02 0.02 54 1010.5
20260509181908 78 255 3.0 3.0 0.00 0.02 0.02 52 1010.7
20260509181406 77 289 5.0 6.0 0.00 0.02 0.02 50 1010.6
20260509180903 77 244 3.0 3.0 0.00 0.02 0.02 53 1010.8
20260509180358 77 301 6.0 7.0 0.00 0.02 0.02 48 1010.7
20260509175855 77 274 7.0 8.0 0.00 0.02 0.02 47 1010.8
20260509175346 77 288 3.0 5.0 0.00 0.02 0.02 55 1010.7
20260509174842 77 312 3.0 3.0 0.00 0.02 0.02 53 1010.3
20260509174338 77 284 4.0 5.0 0.00 0.02 0.02 53 1010.6
20260509173834 76 335 6.0 8.0 0.00 0.02 0.02 51 1010.8
20260509173329 76 262 3.0 3.0 0.00 0.02 0.02 58 1011.0
20260509172826 75 272 3.0 5.0 0.00 0.02 0.02 54 1011.1
20260509172323 75 244 7.0 9.0 0.00 0.02 0.02 53 1011.2
20260509171818 75 304 4.0 5.0 0.00 0.02 0.02 53 1011.1
20260509171308 75 267 4.0 5.0 0.00 0.02 0.02 55 1011.2
20260509170804 75 270 4.0 5.0 0.00 0.02 0.02 57 1011.0
20260509170300 75 287 7.0 8.0 0.00 0.02 0.02 54 1011.3
20260509165800 75 316 9.0 9.0 0.00 0.02 0.02 54 1011.3
20260509165255 75 262 2.0 3.0 0.00 0.02 0.02 67 1011.4
20260509164751 74 227 4.0 6.0 0.00 0.02 0.02 61 1011.7
20260509164247 74 260 3.0 3.0 0.00 0.02 0.02 60 1011.4
20260509163745 74 262 2.0 3.0 0.00 0.02 0.02 61 1011.3
20260509163240 73 241 3.0 3.0 0.00 0.02 0.02 66 1011.3
20260509162739 73 287 5.0 7.0 0.00 0.02 0.02 63 1011.4
20260509162233 73 262 3.0 3.0 0.00 0.02 0.02 62 1011.3
20260509161729 72 304 5.0 6.0 0.00 0.02 0.02 63 1011.5
20260509161226 72 254 5.0 6.0 0.00 0.02 0.02 65 1011.5
20260509160721 71 265 5.0 6.0 0.00 0.02 0.02 67 1011.4
20260509160218 71 247 3.0 5.0 0.00 0.02 0.02 69 1011.5
20260509155713 71 310 3.0 3.0 0.00 0.02 0.02 68 1011.6
20260509155210 71 320 1.0 2.0 0.00 0.02 0.02 72 1011.5
20260509154706 70 335 5.0 5.0 0.00 0.02 0.02 75 1011.4
20260509154203 70 282 3.0 3.0 0.00 0.02 0.02 73 1011.6
20260509153700 69 295 3.0 3.0 0.00 0.02 0.02 76 1011.4
20260509153156 69 310 3.0 3.0 0.00 0.02 0.02 76 1011.4
20260509152652 69 254 3.0 3.0 0.00 0.02 0.02 79 1011.4
20260509152149 69 282 3.0 5.0 0.00 0.02 0.02 77 1011.3
20260509151646 68 222 2.0 2.0 0.00 0.02 0.02 82 1011.5
20260509151143 68 267 1.0 2.0 0.00 0.02 0.02 79 1011.4
20260509150641 67 209 3.0 3.0 0.00 0.02 0.02 81 1011.2
20260509150139 67 298 5.0 6.0 0.00 0.02 0.02 79 1011.1
20260509145635 66 209 1.0 1.0 0.00 0.02 0.02 83 1011.1
20260509145130 66 257 1.0 1.0 0.00 0.02 0.02 84 1011.3
20260509144627 65 220 1.0 1.0 0.00 0.02 0.02 86 1011.3